Mobridge, SD

10:03 AM CDT on September 23, 2017 (GMT -0500)
Mobridge Municipal

Weather History for KMBG - November, 2012

Change the Weather History Date:

Friday, November 2, 2012

  Actual Average Record
Temperature  
Mean Temperature 32 °F 40 °F  
Max Temperature 39 °F 51 °F 78 °F (1917)
Min Temperature 25 °F 28 °F -1 °F (1951)
Degree Days  
Heating Degree Days 33 25  
Month to date heating degree days 63 50  
Since 1 July heating degree days 820 824  
Cooling Degree Days 0 0  
Month to date cooling degree days 0 0  
Year to date cooling degree days 866 644  
Moisture  
Dew Point 25 °F    
Average Humidity 75    
Maximum Humidity 85    
Minimum Humidity 64    
Precipitation  
Precipitation T in 0.04 in 1.46 in (1956)
Month to date precipitation T 0.07  
Year to date precipitation 12.81 17.02  
Snow  
Snow 0.00 in - - ()
Month to date snowfall 0.0  
Since 1 July snowfall T  
Snow Depth 0.00 in    
Sea Level Pressure  
Sea Level Pressure 30.07 in    
Wind  
Wind Speed 5 mph (SE)    
Max Wind Speed 18 mph    
Max Gust Speed 23 mph    
Visibility 10 miles    
Events      
T = Trace of Precipitation, MM = Missing Value Source: NWS Daily Summary

Daily Weather History Graph

Daily Weather History Graph

Search for Another Location

Airport or City:

Trip Planner

Search our weather history database for the weather conditions in past years. The results will help you decide how hot, cold, wet, or windy it might be!

Date:

Astronomy

Nov. 02, 2012 Rise Set
Actual Time 8:23 AM CDT 6:26 PM CDT
Civil Twilight 7:52 AM CDT 6:57 PM CDT
Nautical Twilight 7:17 AM CDT 7:32 PM CDT
Astronomical Twilight 6:42 AM CDT 8:06 PM CDT
Moon 9:09 PM CDT (11/2) 11:51 AM CDT (11/2)
Length of Visible Light 11h 05m
Length of Day
10h 02m
Waning Gibbous, 87% of the Moon is Illuminated
Nov 2
Waning Gibbous
Nov 6
Last Quarter
Nov 13
New
Nov 20
First Quarter
Nov 28
Full

Hourly Weather History & Observations

Time (CDT) Temp. Windchill Dew Point Humidity Pressure Visibility Wind Dir Wind Speed Gust Speed Precip Events Conditions
12:52 AM 27.0 °F 16.1 °F 19.9 °F 75% 30.02 in 10.0 mi East 12.7 mph - N/A   Clear
1:52 AM 25.0 °F 15.5 °F 19.9 °F 81% 30.03 in 10.0 mi ESE 9.2 mph - N/A   Clear
2:52 AM 27.0 °F 17.3 °F 21.0 °F 78% 30.03 in 10.0 mi East 10.4 mph - N/A   Overcast
3:52 AM 27.0 °F 17.3 °F 21.0 °F 78% 30.03 in 10.0 mi East 10.4 mph - N/A   Overcast
4:52 AM 27.0 °F 16.7 °F 21.0 °F 78% 30.02 in 10.0 mi East 11.5 mph - N/A   Overcast
5:52 AM 28.0 °F 20.8 °F 21.0 °F 75% 30.05 in 10.0 mi East 6.9 mph - N/A   Overcast
6:52 AM 28.0 °F 18.6 °F 21.9 °F 78% 30.06 in 10.0 mi East 10.4 mph - N/A   Overcast
7:52 AM 28.0 °F 20.0 °F 21.9 °F 78% 30.07 in 10.0 mi ESE 8.1 mph - N/A   Overcast
8:52 AM 28.9 °F 25.2 °F 21.9 °F 75% 30.09 in 10.0 mi East 3.5 mph - N/A   Overcast
9:52 AM 30.0 °F 23.2 °F 23.0 °F 75% 30.09 in 10.0 mi ESE 6.9 mph - N/A   Overcast
10:52 AM 32.0 °F 22.1 °F 25.0 °F 75% 30.06 in 10.0 mi East 13.8 mph - 0.00 in   Mostly Cloudy
11:39 AM 32.0 °F - 24.8 °F 75% 30.04 in 10.0 mi Calm Calm - 0.00 in   Overcast
11:52 AM 32.0 °F 28.7 °F 25.0 °F 75% 30.11 in 10.0 mi Variable 3.5 mph - 0.00 in   Overcast
12:52 PM 33.1 °F - 25.0 °F 72% 30.11 in 10.0 mi Calm Calm - N/A   Overcast
1:52 PM 36.0 °F 31.1 °F 26.1 °F 67% 30.09 in 10.0 mi South 5.8 mph - N/A   Overcast
2:44 PM 37.4 °F 32.8 °F 26.6 °F 65% 30.03 in 10.0 mi WSW 5.8 mph - N/A   Overcast
2:52 PM 36.0 °F 32.1 °F 26.1 °F 67% 30.09 in 10.0 mi WSW 4.6 mph - N/A   Overcast
3:09 PM 35.6 °F 31.7 °F 26.6 °F 70% 30.03 in 10.0 mi WSW 4.6 mph - N/A   Overcast
3:52 PM 37.0 °F 33.3 °F 27.0 °F 67% 30.07 in 10.0 mi SW 4.6 mph - N/A   Overcast
4:42 PM 37.4 °F - 26.6 °F 65% 30.01 in 10.0 mi Calm Calm - N/A   Overcast
4:49 PM 37.4 °F - 26.6 °F 65% 30.02 in 10.0 mi Calm Calm - N/A   Overcast
4:52 PM 37.0 °F - 27.0 °F 67% 30.08 in 10.0 mi Calm Calm - N/A   Overcast
5:52 PM 37.9 °F - 27.0 °F 65% 30.09 in 10.0 mi Calm Calm - N/A   Overcast
6:52 PM 37.9 °F 33.5 °F 27.0 °F 65% 30.08 in 10.0 mi ESE 5.8 mph - N/A   Overcast
7:52 PM 37.9 °F 35.5 °F 27.0 °F 65% 30.11 in 10.0 mi SE 3.5 mph - N/A   Overcast
8:52 PM 37.9 °F 34.4 °F 28.0 °F 68% 30.10 in 10.0 mi SSE 4.6 mph - N/A   Overcast
9:52 PM 39.0 °F - 28.0 °F 65% 30.11 in 10.0 mi Calm Calm - N/A   Overcast
10:52 PM 37.9 °F 34.4 °F 30.0 °F 73% 30.13 in 10.0 mi SSW 4.6 mph - N/A   Overcast
11:44 PM 37.4 °F - 33.8 °F 87% 30.09 in 10.0 mi Calm Calm - 0.00 in   Overcast
11:52 PM 37.0 °F - 34.0 °F 89% 30.14 in 10.0 mi Calm Calm - 0.00 in   Overcast